User: anonymous   Login
Location: Brede
(50.9167°N, 0.6000°E)
Time: 11:00:23
(UTC+00:00)
Language:

SL-24 DEB - Orbit

View from above orbital plane
View from above orbital plane
View from above satellite
View from above satellite

Ground track
Ground track

The orbit data is extracted from the following two-line orbital elements,

1 36510U 10013C   20299.62582855 +.00000264 +00000-0 +50471-4 0  9996
2 36510 092.0199 154.2233 0025014 010.9683 349.2070 14.63227175562305
Epoch (UTC): 25 October 2020 15:01:11
Eccentricity: 0.0025014
inclination: 92.0199°
perigee height: 665 km
apogee height: 700 km
right ascension of ascending node: 154.2233°
argument of perigee: 10.9683°
revolutions per day: 14.63227175
mean anomaly at epoch: 349.2070°
orbit number at epoch: 56230

The dashed part of the orbit path shows where the satellite is in the earth's shadow,  

DLR